Regional Weather Roundup
Issued by NWS

Home | Current Version | Previous Version | Graphics & Text | Print | Product List | Glossary On
Versions: 1 2 3 4 5 6 7 8 9 10 11 12 13 14 15 16 17 18 19 20 21 22 23 24 25 26 27 28 29 30 31 32 33 34 35 36 37 38 39 40 41 42 43 44 45 46 47 48 49 50
000
ASUS45 KCYS 012310
RWRWY

WYOMING REGIONAL WEATHER ROUNDUP
NATIONAL WEATHER SERVICE CHEYENNE WY
400 PM MST SUN MAR 01 2015

NOTE:  "FAIR" INDICATES FEW OR NO CLOUDS BELOW 12,000 FEET
WITH NO SIGNIFICANT WEATHER AND/OR OBSTRUCTIONS TO VISIBILITY.

WYZ001-020000-
YELLOWSTONE NATIONAL PARK

CITY           SKY/WX    TMP DP  RH WIND       PRES   REMARKS
LK YELLOWSTONE   N/A     20  -5  33 CALM      30.03F
W YELLOWSTONE  NOT AVBL

$$
WYZ002>013-054>058-071-098>099-020000-
NORTHERN WYOMING

CITY           SKY/WX    TMP DP  RH WIND       PRES   REMARKS
JACKSON        SUNNY     25  12  58 CALM      30.05F
CODY           FAIR      27  12  54 SE14      30.11F WCI  15
GREYBULL       FAIR      31   5  33 S8        30.18F WCI  23
WORLAND        FAIR      29   7  39 E6        30.18F WCI  23
SHERIDAN       FAIR      25   4  40 CALM      30.20F
BUFFALO        FAIR      24  11  57 S9        30.16F WCI  14
GILLETTE       FAIR      27   3  35 NW3       30.19F
HULETT         FAIR      25   9  50 W5        30.23S WCI  19
NEWCASTLE      FAIR      27   3  36 N10       30.23F WCI  17

$$
WYZ014>020-022>026-101>103-020000-
CENTRAL WYOMING

CITY           SKY/WX    TMP DP  RH WIND       PRES   REMARKS
BIG PINEY      FAIR      31  13  47 CALM      30.06F
PINEDALE       MOCLDY    23  14  68 NW6       30.06F WCI  16
DUBOIS         FAIR      23  10  58 SE7       30.03S WCI  15
LANDER         CLOUDY    23  12  62 S5        30.12F WCI  17
RIVERTON       FAIR      24   9  52 E6        30.14F WCI  17
CASPER         FAIR      29   7  39 CALM      30.14F
DOUGLAS        FAIR      28  11  48 E6        30.20S WCI  22

$$
WYZ021-027>030-104>119-020000-
SOUTHERN WYOMING

CITY           SKY/WX    TMP DP  RH WIND       PRES   REMARKS
EVANSTON       CLOUDY    29  18  63 E9        30.03S WCI  20
KEMMERER       MOCLDY    30  14  51 E5        30.05R WCI  25
FORT BRIDGER   CLOUDY    28  20  73 SE7       30.09S WCI  20
ROCK SPRINGS   FAIR      29  16  58 S7        30.06F WCI  22
DIXON          FAIR      36  22  57 CALM      30.09F
RAWLINS        FAIR      33  16  49 VRB3      30.07F
SARATOGA       FAIR      32  21  64 CALM      30.07F
LARAMIE        CLOUDY    18  11  74 W5        30.09S WCI  11
CHEYENNE       CLOUDY    23  13  65 SW8       30.17R WCI  14
TORRINGTON     FAIR      34   7  32 CALM      30.23S
PINE BLUFFS    CLOUDY    28  14  54 CALM      30.22S

$$


USA.gov is the U.S. government's official web portal to all federal, state and local government web resources and services.